TimeEDT,TemperatureF,Dew PointF,Humidity,Sea Level PressureIn,VisibilityMPH,Wind Direction,Wind SpeedMPH,Gust SpeedMPH,PrecipitationIn,Events,Conditions,WindDirDegrees,DateUTC
12:54 AM,71.1,51.1,49,29.90,10.0,SW,11.5,-,N/A,,Clear,220,2013-04-10 04:54:00
1:54 AM,69.1,52.0,54,29.87,10.0,SW,12.7,19.6,N/A,,Clear,220,2013-04-10 05:54:00
2:54 AM,66.9,52.0,59,29.87,10.0,SW,9.2,-,N/A,,Clear,230,2013-04-10 06:54:00
3:54 AM,66.0,52.0,60,29.87,10.0,WSW,8.1,-,N/A,,Clear,240,2013-04-10 07:54:00
4:54 AM,64.9,52.0,63,29.88,10.0,SW,6.9,-,N/A,,Clear,230,2013-04-10 08:54:00
5:54 AM,64.9,52.0,63,29.89,10.0,SW,5.8,-,N/A,,Clear,230,2013-04-10 09:54:00
6:54 AM,64.0,51.1,63,29.91,10.0,WSW,4.6,-,N/A,,Clear,240,2013-04-10 10:54:00
7:54 AM,66.9,53.1,61,29.94,10.0,Calm,Calm,-,N/A,,Mostly Cloudy,0,2013-04-10 11:54:00
8:54 AM,70.0,54.0,57,29.94,10.0,ESE,4.6,-,N/A,,Scattered Clouds,120,2013-04-10 12:54:00
9:54 AM,72.0,53.1,51,29.94,10.0,SE,4.6,-,N/A,,Clear,130,2013-04-10 13:54:00
10:54 AM,77.0,53.1,43,29.92,10.0,Calm,Calm,-,N/A,,Clear,0,2013-04-10 14:54:00
11:54 AM,82.9,54.0,37,29.91,-9999.0,Variable,3.5,-,N/A,,Clear,0,2013-04-10 15:54:00
12:54 PM,84.2,53.6,35,29.89,10.0,NW,5.8,-,N/A,,Partly Cloudy,310,2013-04-10 16:54:00
1:54 PM,86.0,55.4,35,29.88,10.0,West,12.7,20.7,N/A,,Partly Cloudy,280,2013-04-10 17:54:00
2:54 PM,87.1,55.0,33,29.85,10.0,WSW,16.1,23.0,N/A,,Partly Cloudy,250,2013-04-10 18:54:00
3:54 PM,84.9,54.0,34,29.83,10.0,West,16.1,25.3,N/A,,Mostly Cloudy,280,2013-04-10 19:54:00
4:54 PM,86.0,55.0,35,29.81,10.0,West,13.8,-,N/A,,Mostly Cloudy,280,2013-04-10 20:54:00
5:50 PM,71.6,51.8,50,29.82,10.0,East,12.7,-,N/A,,Partly Cloudy,90,2013-04-10 21:50:00
5:54 PM,72.0,51.1,48,29.83,10.0,East,10.4,-,N/A,,Partly Cloudy,90,2013-04-10 21:54:00
6:54 PM,68.0,50.0,52,29.80,10.0,East,11.5,-,N/A,,Clear,80,2013-04-10 22:54:00
7:54 PM,66.0,50.0,56,29.83,10.0,NE,29.9,35.7,N/A,,Mostly Cloudy,40,2013-04-10 23:54:00
8:24 PM,66.2,51.8,60,29.91,9.0,North,19.6,32.2,0.00,Rain-Thunderstorm,Light Rain,360,2013-04-11 00:24:00
8:54 PM,61.0,57.0,87,29.84,7.0,ESE,16.1,-,0.17,Rain-Thunderstorm,Light Rain,110,2013-04-11 00:54:00
9:01 PM,60.8,57.2,88,29.84,10.0,SE,10.4,-,0.00,Thunderstorm,Thunderstorm,140,2013-04-11 01:01:00
9:16 PM,60.8,57.2,88,29.83,10.0,SE,10.4,-,0.00,,Scattered Clouds,130,2013-04-11 01:16:00
9:54 PM,60.1,55.9,86,29.82,10.0,Calm,Calm,-,0.00,,Mostly Cloudy,0,2013-04-11 01:54:00
10:15 PM,64.4,57.2,77,29.93,10.0,NNW,23.0,35.7,0.00,,Squalls,340,2013-04-11 02:15:00
10:25 PM,64.4,59.0,83,29.95,2.5,NNW,23.0,50.6,0.08,Rain,Heavy Rain,330,2013-04-11 02:25:00
10:40 PM,62.6,60.8,94,29.95,4.0,NNW,12.7,23.0,0.22,Rain,Heavy Rain,330,2013-04-11 02:40:00
10:54 PM,63.0,60.1,90,29.94,8.0,NNW,6.9,-,0.25,Rain,Light Rain,330,2013-04-11 02:54:00
11:54 PM,62.1,61.0,96,29.89,7.0,SSE,3.5,-,0.04,Rain,Light Rain,160,2013-04-11 03:54:00